Simultaneous Nadir Overpasses (SNOs) Predictions

Prediction of SNOs between GOES-16 and NOAA-19 Satellite Orbit:

Table of predicted SNOs for the next 14.0 days since TLE Epoch: 2/28/2020
Index Date Time (GOES-16) GOES-16 Lat,Lon NOAA-19 Lat,Lon Distance(km) Time Diff (sec)
1 02/28/2020 22:22:28 -0.03, -75.16 0.86, -71.20 450.73 80
2 03/01/2020 10:52:25 0.02, -75.18 0.90, -79.02 437.98 80
3 03/02/2020 10:40:45 0.03, -75.18 0.28, -76.16 112.19 80
4 03/03/2020 10:31:46 0.03, -75.19 -0.39, -73.31 213.73 80
5 03/05/2020 22:50:13 -0.02, -75.19 -0.77, -78.31 356.21 80
6 03/06/2020 22:38:34 -0.03, -75.20 -0.08, -75.46 29.89 80
7 03/07/2020 22:29:33 -0.03, -75.21 0.56, -72.61 296.63 80
8 03/10/2020 10:47:52 0.03, -75.25 0.58, -77.57 265.09 80
9 03/11/2020 10:38:53 0.03, -75.26 -0.10, -74.72 61.77 80
10 03/12/2020 10:27:13 0.03, -75.28 -0.77, -71.88 388.75 80




NCC Satellite Simultaneous Nadir Overpasses (SNOs) Prediction Service
